Flag for Germany Weather past 2 weeks in Garmisch-Partenkirchen, Bavaria, Germany

Now
32 °F

Light snow. Broken clouds.


Feels Like: 26 °F
Forecast: 21 / 33 °F
Wind: 6 mph from East

Location: Innsbruck-Flughafen

Current Time: Jan 25, 2015 at 12:04:10 PM

Latest Report: Jan 25, 2015 at 11:20 AM


Visibility: 3 mi

Pressure: 30.27 "Hg

Humidity: 93%

Dew point: 30 °F

Location of Garmisch-PartenkirchenLocation

Historic Weather in Garmisch-Partenkirchen — Graph

°F

Garmisch-Partenkirchen temperature yesterday

Maximum temperature yesterday: 37 °F (at 12:20 PM)
Minimum temperature yesterday: 32 °F (at 12:20 AM)
Average temperature yesterday: 33 °F

Past Weeks' High & Low Weather Summary

 TemperatureHumidityPressure
High63 °F (Jan 10, 2:20 PM)100% (Jan 14, 8:20 PM)30.36 "Hg (Jan 14, 8:20 PM)
Low23 °F (Jan 21, 1:50 AM)32% (Jan 10, 5:20 PM)29.68 "Hg (Jan 16, 9:50 PM)
Average36 °F80%29.98 "Hg
* Reported Jan 10 10:20 AM — Jan 25 10:50 AM, Garmisch-Partenkirchen, Weather by CustomWeather, © 2014

Note: Actual official high and low records may vary slightly from our data, if they occured in-between our weather recording intervals... More about our weather records

Advertising

Garmisch-Partenkirchen weather history for previous 24 hours

 ConditionsComfort  
Time TempWeatherWind HumidityBarometerVisibility
10:50 AM
Jan 25
32 °FLight snow. Broken clouds.7 mph93%30.27 "Hg3 mi
10:20 AM32 °FLight snow. Broken clouds.6 mph87%30.27 "Hg2 mi
9:50 AM32 °FSnow. Broken clouds.3 mph87%30.27 "Hg1 mi
9:20 AM30 °FSnow. Broken clouds.2 mph93%30.27 "Hg1 mi
8:50 AM30 °FSnow. Broken clouds.3 mph100%30.27 "Hg1 mi
8:20 AM30 °FSnow. Broken clouds.5 mph100%30.24 "Hg1 mi
7:50 AM30 °FSnow. Broken clouds.7 mph100%30.24 "Hg1 mi
7:20 AM30 °FSnow. Partly cloudy.7 mph100%30.21 "Hg1 mi
6:50 AM30 °FSnow. Partly cloudy.3 mph100%30.21 "Hg2 mi
6:20 AM30 °FSnow. Partly cloudy.1 mph100%30.18 "Hg1 mi
5:50 AM30 °FSnow. Partly cloudy.1 mph100%30.18 "Hg2 mi
5:20 AM30 °FLight snow. Ice fog.2 mph100%30.18 "Hg2 mi
4:50 AM30 °FLight snow. Ice fog.2 mph100%30.18 "Hg2 mi
4:20 AM32 °FLight snow. Ice fog.5 mph93%30.15 "Hg3 mi
3:50 AM32 °FPartly cloudy.2 mph93%30.15 "Hg5 mi
3:20 AM32 °FSnow flurries. Passing clouds.5 mph93%30.15 "HgN/A
2:50 AM32 °FSnow flurries. Low clouds.1 mph93%30.15 "HgN/A
2:20 AM32 °FSnow flurries. Passing clouds.2 mph93%30.15 "HgN/A
1:50 AM32 °FPassing clouds.2 mph93%30.15 "HgN/A
1:20 AM32 °FSnow flurries. Passing clouds.1 mph93%30.15 "HgN/A
12:50 AM32 °FSnow flurries. Passing clouds.1 mph93%30.15 "HgN/A
12:20 AM32 °FPassing clouds.1 mph93%30.15 "HgN/A
11:50 PM
Jan 24
32 °FPassing clouds.1 mph93%30.12 "Hg6 mi
11:20 PM32 °FPassing clouds.1 mph93%30.12 "Hg6 mi
10:50 PM32 °FPartly cloudy.2 mph93%30.12 "Hg5 mi
10:20 PM32 °FPartly cloudy.1 mph93%30.12 "Hg5 mi
9:50 PM32 °FLight snow. Partly cloudy.1 mph93%30.09 "Hg5 mi
9:20 PM32 °FPartly cloudy.1 mph93%30.09 "Hg4 mi
8:50 PM32 °FSnow flurries. Partly cloudy.2 mph93%30.09 "Hg4 mi
8:20 PM32 °FLight snow. Partly cloudy.2 mph100%30.09 "Hg4 mi
7:50 PM32 °FLight snow. Partly cloudy.2 mph100%30.07 "Hg4 mi
7:20 PM32 °FLight snow. Partly cloudy.1 mph93%30.07 "Hg4 mi
6:50 PM34 °FLight snow. Partly cloudy.1 mph87%30.07 "HgN/A
6:20 PM34 °FLight snow. Partly cloudy.2 mph87%30.04 "HgN/A
5:50 PM34 °FLight snow. Partly cloudy.3 mph87%30.04 "HgN/A
5:20 PM34 °FLight snow. Partly cloudy.5 mph87%30.04 "HgN/A
4:50 PM34 °FLight snow. Broken clouds.6 mph87%30.01 "HgN/A
4:20 PM34 °FSnow flurries. Broken clouds.7 mph87%30.01 "HgN/A
3:50 PM34 °FBroken clouds.9 mph87%30.01 "HgN/A
3:20 PM36 °FSnow flurries. Broken clouds.8 mph87%30.01 "HgN/A
2:50 PM36 °FSnow flurries. Broken clouds.8 mph81%30.01 "HgN/A
2:20 PM36 °FBroken clouds.8 mph81%30.01 "HgN/A
1:50 PM36 °FBroken clouds.6 mph87%30.01 "HgN/A
1:20 PM36 °FBroken clouds.3 mph87%30.01 "HgN/A
12:50 PM36 °FBroken clouds.2 mph81%30.04 "HgN/A
12:20 PM37 °FBroken clouds.2 mph81%30.04 "HgN/A
Weather by CustomWeather, © 2014

See weather overviewHow to use our weather pages